Location: Mt. Bigelow
(32.4165°N, 110.7345°W)
Time: 04:01:15
(UTC-07:00)

Hubble Space Telescope - Visible Passes

Search period start: 20 September 2017 00:00
Search period end: 30 September 2017 00:00
Orbit: 538 x 541 km, 28.5° (Epoch: 19 September)

Date Brightness Start Highest point End Pass type
(mag) Time Alt. Az. Time Alt. Az. Time Alt. Az.
27 Sep 3.4 05:50:30 10° S 05:52:31 13° SSE 05:54:31 10° SE visible
28 Sep 3.2 05:39:37 10° SSW 05:42:16 17° SSE 05:44:54 10° ESE visible
29 Sep 2.9 05:28:57 10° SSW 05:32:02 20° SSE 05:35:06 10° ESE visible
